Regional Weather Roundup
Issued by NWS Kansas City/Pleasant Hill, MO

Home | Current Version | Previous Version | Graphics & Text | Print | Product List | Glossary Off
Versions: 1 2 3 4 5 6 7 8 9 10 11 12 13 14 15 16 17 18 19 20 21 22 23 24 25 26 27 28 29 30 31 32 33 34 35 36 37 38 39 40 41 42 43 44 45 46 47 48 49 50

000
ASUS43 KEAX 270404
RWREAX

WEATHER ROUNDUP FOR EASTERN KANSAS AND NORTHWEST MISSOURI
NATIONAL WEATHER SERVICE KANSAS CITY/PLEASANT HILL MO
1000 PM CST WED NOV 26 2014

KSZ040-057-103>105-MOZ028-029-037-043-270500-
...KANSAS CITY METROPOLITAN AREA...

CITY           SKY/WX    TMP DP  RH WIND       PRES   REMARKS
K.C. INTL      CLOUDY    29  22  75 NW12      30.36R WCI  19
K.C. DOWNTOWN  CLOUDY    31  22  69 NW13G21   30.37R WCI  21
LEES SUMMIT    CLOUDY    30  22  72 NW18G24   30.34R WCI  18
OLATHE - IXD   CLOUDY    29  22  75 NW20      30.36R WCI  16
OLATHE - OJC   CLOUDY    29  22  75 N17G26    30.34R WCI  17
LAWRENCE       CLOUDY    29  21  72 N16       30.39R WCI  17

$$

MOZ001>008-011>017-020>025-030>033-038>040-044>046-053-054-270500-
...NORTHERN AND CENTRAL MISSOURI...

CITY           SKY/WX    TMP DP  RH WIND       PRES   REMARKS
ST. JOSEPH     CLOUDY    27  20  75 N21G29    30.39R WCI  13
MOSBY          CLOUDY    32  25  74 NW13G29   30.36R WCI  22
WARRENSBURG    CLOUDY    32  27  80 NW16G23   30.32R WCI  21
WHITEMAN AFB   CLOUDY    31  25  79 NW17G26   30.29R WCI  20
CLINTON        CLOUDY    34  28  80 NW14      30.32R WCI  24
SEDALIA        CLOUDY    32  27  81 NW16      30.28R WCI  21
WARSAW         NOT AVBL
CHILLICOTHE      N/A     31  26  82 N8        30.31R WCI  23
MOBERLY        CLOUDY    34  30  86 N14       30.23  WCI  24
KIRKSVILLE     CLOUDY    29  27  92 N12       30.25R FOG     WCI  19

$$

MOZ041-047>049-056>058-063>065-088>090-097-270500-
...EASTERN AND SOUTHERN MISSOURI...

CITY           SKY/WX    TMP DP  RH WIND       PRES   REMARKS
ST. LOUIS INTL LGT SNOW  34  30  86 N6        30.13R VSB 1   WCI  29
SPIRIT OF STL  LGT SNOW  34  32  92 NW14      30.13R FOG     WCI  25
COLUMBIA       CLOUDY    33  30  88 NW17G25   30.20R WCI  22
JEFFERSON CITY CLOUDY    34  29  82 NW14G22   30.23R WCI  25
MEXICO         LGT SNOW N/A N/A N/A NW14      30.19R
ROLLA          CLOUDY    31  28  89 W18G28    30.17R FOG     WCI  19
OSAGE BEACH    CLOUDY    34  25  69 NW10G18   30.24R WCI  26
SPRINGFIELD    CLOUDY    34  25  69 NW23      30.28R WCI  22
BRANSON        MOCLDY    36  27  69 NW7G16    30.26R WCI  30
NEVADA         CLOUDY    32  25  74 NW14G24   30.36R WCI  22
JOPLIN         PTCLDY    32  24  72 NW12      30.36R WCI  23
WEST PLAINS    CLOUDY    37  27  67 NW18G30   30.18R WCI  27

$$

IAZ060-094-KSZ022-034>040-054-083-096-NEZ052-066-093-270500-
...KANSAS...SOUTHEAST NEBRASKA AND IOWA...

CITY           SKY/WX    TMP DP  RH WIND       PRES   REMARKS
TOPEKA         CLOUDY    29  20  69 NW15      30.41R WCI  18
MANHATTAN      CLEAR     23  19  85 SW5       30.44R WCI  17
EMPORIA        CLEAR     27  20  75 NW12G21   30.41R WCI  17
CHANUTE        CLEAR     29  23  78 NW10      30.39R WCI  20
WICHITA        PTCLDY    34  21  59 N14       30.42R WCI  25
OMAHA          CLOUDY    23  18  81 N15       30.44R WCI  10
LINCOLN        PTCLDY    20  14  77 N10       30.45R WCI   9
FALLS CITY     CLOUDY    26  19  74 NW10G21   30.41R WCI  16
LAMONI         CLOUDY    26  22  84 N18       30.31R WCI  13
DES MOINES     FLURRIES  24  20  84 NW13      30.33R WCI  12

$$



USA.gov is the U.S. government's official web portal to all federal, state and local government web resources and services.